Regional Weather Roundup
Issued by NWS

Home | Current Version | Previous Version | Text Only | Print | Product List | Glossary Off
Versions: 1 2 3 4 5 6 7 8 9 10 11 12 13 14 15 16 17 18 19 20 21 22 23 24 25 26 27 28 29 30 31 32 33 34 35 36 37 38 39 40 41 42 43 44 45 46 47 48 49 50

000
ASUS43 KMKX 041721
RWRWI

WISCONSIN REGIONAL WEATHER ROUNDUP
NATIONAL WEATHER SERVICE MILWAUKEE/SULLIVAN WI
1200 PM CDT WED MAY 04 2016

NOTE: "FAIR" INDICATES FEW OR NO CLOUDS BELOW 12,000 FEET WITH NO
SIGNIFICANT WEATHER AND/OR OBSTRUCTIONS TO VISIBILITY.

WIZ001-002-006>008-014>016-023>028-041800-
NORTHWEST WISCONSIN

CITY           SKY/WX    TMP DP  RH WIND       PRES   REMARKS
SUPERIOR ARPT  SUNNY     58  24  26 N14G24    29.97S
ASHLAND        SUNNY     52  34  50 NE17      29.98R
HAYWARD        SUNNY     54  19  25 NW13G22   29.95R
SIREN          SUNNY     58  27  30 N17G24    29.95F
CUMBERLAND     SUNNY     54  30  40 NW20      29.94S
RICE LAKE      MOSUNNY   56  29  35 N9G17     29.95S
CHETEK         MOSUNNY   56  34  44 N10G18    29.93S
LADYSMITH      SUNNY     56  26  32 N18       29.93R
EAU CLAIRE     MOSUNNY   58  33  39 NW17G24   29.93R
MENOMONIE      SUNNY     58  32  37 NW16G32   29.94S
NEW RICHMOND   MOSUNNY   58  30  34 N15G29    29.97R
OSCEOLA        SUNNY     58  32  37 NW12G23   29.99S
$$

WIZ003>005-009-010-017-018-041800-
NORTH CENTRAL WISCONSIN

CITY           SKY/WX    TMP DP  RH WIND       PRES   REMARKS
MANITOWISH WTR PTSUNNY   46  31  56 N12G17    29.91R
ARBOR VITAE    MOSUNNY   48  33  57 N8G18     29.90R
WOODRUFF       MOSUNNY   48  33  57 N8G18     29.90R
RHINELANDER    PTSUNNY   46  31  55 N16G24    29.89R
EAGLE RIVER    CLOUDY    42  30  64 N13G23    29.90R
LAND O LAKES   CLOUDY    40  32  71 NW10G20   29.91R WCI  34
PHILLIPS       SUNNY     51  25  36 N20G26    29.90R
TOMAHAWK       SUNNY     50  26  39 N14G22    29.89R
MEDFORD        MOSUNNY   52  31  45 N17       29.88R
MERRILL        SUNNY     53  31  43 NE18G24   29.87R
$$

WIZ029-030-035-036-043>047-041800-
CENTRAL WISCONSIN

CITY           SKY/WX    TMP DP  RH WIND       PRES   REMARKS
WAUSAU         MOSUNNY   54  28  36 N16G23    29.84R
MOSINEE        MOSUNNY   52  27  37 N18G29    29.87R
MARSHFIELD     SUNNY     55  30  38 N15G28    29.86R
STEVENS POINT  SUNNY     53  28  39 N17G28    29.85R
WAUPACA        PTSUNNY   55  31  39 NW14G24   29.83S
WAUTOMA        MOSUNNY   54  32  43 N17G25    29.83S
WISC RAPIDS    MOSUNNY   57  29  34 N13G25    29.86S
CAMP DOUGLAS   MOSUNNY   57  36  44 NW22G28   29.86R
$$

WIZ011>013-019>022-031-037>040-048>050-041800-
NORTHEAST WISCONSIN

CITY           SKY/WX    TMP DP  RH WIND       PRES   REMARKS
ANTIGO         CLOUDY    46  35  64 N18       29.86R
SHAWANO        CLOUDY    52  34  50 N14G22    29.84S
OCONTO         CLOUDY    47  35  62 N13G20    29.82R
STURGEON BAY   CLOUDY    46  34  61 N22       29.83S
GREEN BAY      CLOUDY    48  36  63 N16G22    29.82R
MANITOWOC      CLOUDY    47  35  63 N26       29.80R
APPLETON       PTSUNNY   46  34  61 N17       29.81R
CLINTONVILLE   CLOUDY    50  32  50 N18G25    29.84R
OSHKOSH        CLOUDY    49  35  58 N17       29.82R
$$

WIZ032>034-041-042-053>061-041800-
SOUTHWEST WISCONSIN

CITY           SKY/WX    TMP DP  RH WIND       PRES   REMARKS
LA CROSSE      MOSUNNY   59  34  39 NW20      29.90S
SPARTA         MOSUNNY   58  33  39 N13G23    29.89S
VIROQUA        MOSUNNY   55  34  43 N22       29.88S
BOSCOBEL       SUNNY     61  33  35 N13G25    29.88R
PRAIRIE DU CHI SUNNY     57  31  36 NW16G25   29.89S
PLATTEVILLE    MOSUNNY   56  36  46 N24G31    29.85S
$$

WIZ056-057-062-063-064-067-068-041800-
SOUTH CENTRAL WISCONSIN

CITY           SKY/WX    TMP DP  RH WIND       PRES   REMARKS
REEDSBURG      MOSUNNY   55  32  42 NW16G28   29.84S
BARABOO/DELLS  SUNNY     55  26  33 N17G25    29.84R
LONE ROCK      MOSUNNY   57  34  41 N21G30    29.86R
MINERAL POINT  MOSUNNY   57  32  38 NW20G29   29.84S
MADISON        PTSUNNY   53  36  52 N18G29    29.82R
MIDDLETON      PTSUNNY   55  38  52 N17G25    29.83S
WATERTOWN      CLOUDY    49  38  66 N12G23    29.81S
MONROE         PTSUNNY   54  36  50 N12G30    29.81F
JANESVILLE     NOT AVBL
$$

WIZ051-052-058>065-066-070>072-041800-
SOUTHEAST WISCONSIN

CITY           SKY/WX    TMP DP  RH WIND       PRES   REMARKS
MILWAUKEE      PTSUNNY   48  36  63 NW16G22   29.79R
WAUKESHA       CLOUDY    45  34  65 NW15G24   29.80R
MILWAUKEE/TIMM CLOUDY    46  34  61 N12G24    29.80R
RACINE         CLOUDY    47  37  68 N15G22    29.80R
BURLINGTON     CLOUDY    46  36  68 N16       29.80S
KENOSHA        CLOUDY    48  35  60 N12G25    29.79R
FOND DU LAC    CLOUDY    49  36  61 N18       29.82S
SHEBOYGAN      CLOUDY    46  34  62 N17G28    29.80R
WEST BEND      CLOUDY    46  34  61 N15G24    29.80R
JUNEAU         CLOUDY    48  36  62 N18G26    29.83R
$$

LSZ147-162-041800-
LAKE SUPERIOR

STATION/POSITION TIME  TEMP    WIND        PRES    WAVE
                       AIR SEA DIR/SP/G            HT/PER
                 (UTC) (F)     (DEG/KT/KT) (MB)    (FT/S)
W MID LAKE BUOY  1650   39 37   CALM  /  2 1016.0R   2/ 4
DEVILS ISLAND    1700   40     110/  8/  9 1016.2R
SAXON HARBOR     1640   40      40/  9/ 12 1015.2R
$$

LMZ867-665-643>646-041800-
LAKE MICHIGAN

STATION/POSITION TIME  TEMP    WIND        PRES    WAVE
                       AIR SEA DIR/SP/G            HT/PER
                 (UTC) (F)     (DEG/KT/KT) (MB)    (FT/S)
CHAMBERS ISLAND  1600   43     340/ 17/ 22 1009.5S
N MID LAKE BUOY  1650   40 39  350/ 16/ 19 1008.3R   4/ 5
NORTHPORT PIER   1703   41     340/ 20     1009.5R
ALGOMA LAKESHORE 1615          350/ 20/ 27   N/A
KEWAUNEE LAKESHO 1700   46     360/ 11/ 18 1008.6R
SHEBOYGAN LAKESH 1700   45     360/ 23/ 26 1009.5R
PORT WASHINGTON  1640   49     360/ 11/ 18 1009.5R
S MID LAKE BUOY  1650   41 40  360/ 25/ 31 1006.7R   7/ 6
KENOSHA   LAKESH 1700   45      20/ 16/ 21 1008.5R
$$

TC  - TEMPERATURE IN CELSIUS
VSB - VISIBILITY IN STATUTE MILES
WCI - WIND CHILL INDEX
HX  - HEAT INDEX





USA.gov is the U.S. government's official web portal to all federal, state and local government web resources and services.